Flag for Brazil Weather past 2 weeks in Brasilia, Distrito Federal, Brazil

Now
72 °F

Broken clouds.


Feels Like: 71 °F
Forecast: N/A
Wind: 3 mph from Southeast

Location: Brasilia Aeroporto

Current Time: Mar 27, 2015 at 6:46:54 PM

Latest Report: Mar 27, 2015 at 6:00 PM


Visibility: N/A

Pressure: 30.12 "Hg

Humidity: 83%

Dew point: 66 °F

Location of BrasiliaLocation

Historic Weather in Brasilia — Graph

°F

Brasilia temperature yesterday

Maximum temperature yesterday: 81 °F (at 12:00 PM)
Minimum temperature yesterday: 64 °F (at 5:00 AM)
Average temperature yesterday: 71 °F

Past Weeks' High & Low Weather Summary

 TemperatureHumidityPressure
High81 °F (Mar 16, 4:00 PM)100% (Mar 13, 4:00 AM)30.21 "Hg (Mar 13, 4:00 AM)
Low34 °F (Mar 14, 6:00 PM)24% (Mar 25, 4:00 PM)29.95 "Hg (Mar 14, 4:00 PM)
Average68 °F84%30.07 "Hg
* Reported Mar 12 5:00 PM — Mar 27 5:00 PM, Brasilia, Weather by CustomWeather, © 2015

Note: Actual official high and low records may vary slightly from our data, if they occured in-between our weather recording intervals... More about our weather records

Advertising

Brasilia weather history for previous 24 hours

 ConditionsComfort  
Time TempWeatherWind HumidityBarometerVisibility
5:00 PM
Fri, Mar 27
72 °FBroken clouds.3 mph83%30.12 "HgN/A
4:00 PM70 °FBroken clouds.3 mph88%30.12 "HgN/A
3:00 PM68 °FBroken clouds.3 mph94%30.12 "HgN/A
2:00 PM66 °FBroken clouds.5 mph88%30.15 "HgN/A
1:00 PM64 °FScattered showers. Broken clouds.6 mph94%30.18 "HgN/A
12:00 PM73 °FThunderstorms. Partly sunny.6 mph69%N/AN/A
11:00 AM73 °FPartly sunny.9 mph69%30.21 "HgN/A
10:00 AMN/AMixture of precip.3 mphN/AN/AN/A
9:00 AM73 °FBroken clouds.3 mph78%30.21 "HgN/A
8:00 AM70 °FPartly sunny.5 mph88%30.18 "HgN/A
7:00 AM66 °FPartly sunny.No wind88%30.15 "HgN/A
6:00 AM66 °FPassing clouds.2 mph94%30.12 "HgN/A
5:00 AM66 °FPassing clouds.No wind94%30.12 "HgN/A
4:00 AM66 °FPassing clouds.3 mph94%30.09 "HgN/A
3:00 AM66 °FClear.2 mph88%30.12 "Hg10 mi
2:00 AM66 °FClear.No wind94%30.09 "Hg10 mi
1:00 AM66 °FPassing clouds.2 mph94%30.07 "HgN/A
12:00 AM68 °FPassing clouds.2 mph88%30.09 "HgN/A
11:00 PM
Thu, Mar 26
68 °FPassing clouds.2 mph88%30.09 "HgN/A
10:00 PM70 °FPassing clouds.2 mph83%30.09 "HgN/A
9:00 PM70 °FPartly cloudy.3 mph83%30.09 "HgN/A
8:00 PM70 °FPartly cloudy.2 mph83%30.07 "HgN/A
7:00 PM72 °FPassing clouds.3 mph78%30.07 "HgN/A
6:00 PM73 °FThundershowers. Partly sunny.7 mph74%N/AN/A
Weather by CustomWeather, © 2015

See weather overviewHow to use our weather pages